ロニオス彗星

C/2006 S3 ( LONEOS )

English version
Home page
Total 6,336 html files since Dec. 4, 1995
Updated on October 15, 2008

---------------------------------------------------------------------

・ プロフィール

発見日 2006年9月19日
発見光度 19.0等
発見者 Lowell Observatory Near-Earth Object Search

・ 軌道要素

The following orbital elements are taken from MPC 61702:

Epoch 2012 Apr. 23.0 TT = JDT 2456040.5
T 2012 Apr. 16.4570 TT                                  MPC
q   5.130889             (2000.0)            P               Q
z  -0.000647       Peri.  140.1334      -0.2156945      -0.9648983
 +/-0.000019       Node    38.3665      -0.9461135      +0.2444716
e   1.003321       Incl.  166.0318      -0.2415473      -0.0959426
From 120 observations 2006 Aug. 29-2008 Jan. 6, mean residual 0".7.

・ 星図

・ 光度変化

        m1 = 2.0 + 5 logΔ + 10.0 log r

---------------------------------------------------------------------

軌道要素はMPCのEphemerides and Orbital Elementsに掲載されたものです。
星図は StellaNavigator Ver.2.0 for Windows (アストロアーツ 編著 / アスキー出版局刊) で作成したものです。
光度グラフはComet for Windowsで作成したものです。

---------------------------------------------------------------------

Copyright(C) 1995-2008 Seiichi Yoshida (comet@aerith.net). All rights reserved.